World > North America > United States > Oregon > Merrill   City of Merrill, OR

Merrill, OR Hourly Weather Updates

Feedback E-mail the Weather

Quick Clicks

Merrill, OR Weather Maps

°F °C°F °C
Merrill Weather Map
UTC Time: 7/24/2024, 21:53
Your Time:

Merrill, OR Regional Weather

Expires:202407242200;;234958
ASUS46 KPQR 242110
RWROR 

OREGON REGIONAL WEATHER ROUNDUP
NATIONAL WEATHER SERVICE PORTLAND OR
200 PM PDT WED JUL 24 2024

NOTE: "FAIR" INDICATES FEW OR NO CLOUDS BELOW 12,000 FEET WITH
NO SIGNIFICANT WEATHER AND/OR OBSTRUCTIONS TO VISIBILITY.


ORZ029>031-041-044-049-050-061>064-502-503-505>511-242200-
EASTERN OREGON

  
CITY           SKY/WX    TMP DP  RH WIND       PRES   REMARKS
MADRAS         MOSUNNY   88  41  19 W3        30.04F                  
REDMOND        MOSUNNY   89  46  22 N10G20    30.05F SMOKE            
BEND           MOSUNNY   90  39  17 NW9G15    30.06R                  
PRINEVILLE     PTSUNNY   86  41  20 NW16G22   30.06S                  
KLAMATH FALLS  SUNNY     93  53  25 W10       30.11F HX  90           
LAKEVIEW       SUNNY     95  51  22 S17G26    30.19F HX  92           
HERMISTON      PTSUNNY   88  38  17 W9        29.93F                  
PENDLETON      MOSUNNY   88  35  15 W8        29.98F                  
JOHN DAY       PTSUNNY   95  49  21 NW6       30.01F HX  92           
MEACHAM        MOSUNNY   79  38  22 VRB3      30.09S                  
LA GRANDE      MOSUNNY   93  43  17 VRB5      29.98F                  
BAKER CITY     PTSUNNY  100  50  18 CALM      30.01F HAZE    HX  97   
BURNS          PTSUNNY   90  54  29 SW9       30.10S                  
ROME             N/A     99  47  17 W17G35    30.09F HX  95           
ONTARIO        MOSUNNY  102  55  20 VRB5      29.96F HAZE    HX 100   
$$


OTHER REGIONAL REPORTS
  
CITY           SKY/WX    TMP DP  RH WIND       PRES   REMARKS
SEATTLE        MOSUNNY   73  50  44 S10       30.10F                  
SPOKANE        PTSUNNY   91  34  13 VRB7G21   29.99F                  
VANCOUVER BC   MOSUNNY   72  54  53 SE7       30.07F                  
PRINCE GEORGE  PTSUNNY   64  46  52 CALM      29.98F                  
DAWSON CREEK   MOSUNNY   68  45  42 SE13      30.00F                  
WHITEHORSE     PTSUNNY   72  61  68 SE9       29.96S                  
BOISE          MOSUNNY  105  48  14 VRB6      30.00F HX 101           
REDDING        SUNNY    106  50  15 S17G23    29.92F HX 103           
SAN FRANCISCO  MOSUNNY   79  57  46 NW14      30.02F                  

$$

  

SKY/WX - Weather  TMP - Temperature  DP - Dew Point  RH - Humidity
WIND - Wind Direction/Speed PRES - Barometric Pressure VSB - Visibility
WCI - Wind Chill Index E13G22 Wind - East Wind 13 mph/Gusts of 22 mph

Trending Headlines

Trending Entertainment Headlines

Merrill Radar Loop

Use the map search tool if you want to place a location marker on the radar map...

Merrill Quick Facts

National Two Day Weather Forecast


E-mail the Merrill Weather Forecast

Voice your opinion or tell us about page issues...